Selva, Italy 16 day weather forecast

Slopes altitude range 1005 m - 2520m

Number of lifts: 83 Pistes: 175km

In some cases the lift and piste totals shown are for the ski domain (e.g. Three Valleys) rather than individual resort (e.g. Courchevel)

Overview

The 16 day weather forecast is fully updated 4 times every day.

    • Mon 22 APR 2019
    • Mon 22
    • 2C 10C
    • Tue 23 APR 2019
    • Tue 23
    • 2C 8C
    • Wed 24 APR 2019
    • Wed 24
    • 2C 7C
    • Thu 25 APR 2019
    • Thu 25
    • 2C 10C
    • Fri 26 APR 2019
    • Fri 26
    • 3C 8C
    • Sat 27 APR 2019
    • Sat 27
    • -2C 3C
    • Sun 28 APR 2019
    • Sun 28
    • 3C 9C
    • Mon 29 APR 2019
    • Mon 29
    • 4C 11C
    • Tue 30 APR 2019
    • Tue 30
    • -4C 0C
    • Wed 01 MAY 2019
    • Wed 01
    • -5C -1C
    • Thu 02 MAY 2019
    • Thu 02
    • -8C 1C
    • Fri 03 MAY 2019
    • Fri 03
    • -5C 4C
    • Sat 04 MAY 2019
    • Sat 04
    • -2C 9C
    • Sun 05 MAY 2019
    • Sun 05
    • 3C 11C
    • Mon 06 MAY 2019
    • Mon 06
    • 1C 4C
    • Tue 07 MAY 2019
    • Tue 07
    • -4C -2C

Date:

Time Type 0°C level Temp Chill Snow Cloud Speed Gust Dir Press
3:00 1723m -1°C -1_7 0cm 75% 7mph 8mph 1017mB
6:00 2924m -2°C -2_8 0cm 76% 8mph 9mph 1015mB
9:00 2936m 2°C 2_9 0cm 74% 9mph 11mph 1012mB
12:00 2892m 10°C 10_9 0cm 71% 9mph 10mph 1009mB
15:00 2955m 11°C 11_9 0cm 25% 9mph 11mph 1007mB
18:00 2684m 11°C 11_9 0cm 50% 9mph 10mph 1007mB
21:00 2279m 1°C 1_9 0cm 93% 9mph 10mph 1007mB
0:00 1973m 0°C 0_10 0cm 95% 10mph 13mph 1006mB
3:00 1808m -1°C -1_9 0cm 99% 9mph 10mph 1005mB
6:00 2405m -1°C -1_10 1cm 99% 10mph 12mph 1003mB
9:00 2445m 2°C 2_10 0cm 93% 10mph 12mph 1002mB
12:00 2550m 8°C 8_10 0cm 91% 10mph 12mph 1001mB
15:00 2409m 7°C 7_11 0cm 99% 11mph 12mph 1002mB
18:00 2275m 7°C 7_9 0cm 99% 9mph 11mph 1003mB
21:00 2479m 1°C 1_10 0cm 100% 10mph 12mph 1005mB
0:00 2459m 0°C 0_9 0cm 95% 9mph 12mph 1006mB
3:00 2350m 0°C 0_10 0cm 68% 10mph 12mph 1008mB
6:00 2284m 0°C 0_10 0cm 66% 10mph 13mph 1009mB
9:00 2412m 2°C 2_12 0cm 79% 12mph 15mph 1009mB
12:00 2565m 7°C 7_13 0cm 89% 13mph 16mph 1009mB
15:00 2588m 7°C 7_14 0cm 100% 14mph 19mph 1009mB
18:00 2519m 7°C 7_12 0cm 97% 12mph 16mph 1011mB
21:00 2619m 2°C 2_10 0cm 75% 10mph 14mph 1016mB
0:00 2495m 2°C 2_10 0cm 84% 10mph 13mph 1017mB
3:00 2353m 1°C 1_11 0cm 76% 11mph 14mph 1017mB
6:00 2178m 1°C 1_12 0cm 73% 12mph 15mph 1017mB
9:00 2452m 2°C 2_13 0cm 42% 13mph 16mph 1016mB
12:00 2735m 10°C 10_14 0cm 63% 14mph 18mph 1015mB
15:00 2801m 10°C 10_12 0cm 98% 12mph 15mph 1014mB
18:00 2693m 10°C 10_9 0cm 99% 9mph 12mph 1015mB
21:00 2543m 3°C 3_10 0cm 100% 10mph 13mph 1016mB
0:00 2496m 3°C 3_9 0cm 98% 9mph 12mph 1016mB
3:00 2331m 2°C 2_9 0cm 78% 9mph 13mph 1015mB
6:00 2314m 2°C 2_10 0cm 76% 10mph 13mph 1015mB
9:00 2455m 3°C 3_11 0cm 70% 11mph 13mph 1016mB
12:00 2468m 8°C 8_2 0cm 59% 2mph 5mph 1017mB
15:00 1918m 5°C 5_10 7cm 100% 10mph 13mph 1019mB
18:00 1561m 5°C 5_9 5cm 100% 9mph 11mph 1021mB
21:00 1450m -3°C -3_8 1cm 100% 8mph 11mph 1023mB
0:00 1387m -4°C -4_8 1cm 100% 8mph 10mph 1024mB
3:00 1372m -4°C -4_8 1cm 95% 8mph 10mph 1025mB
6:00 1620m -4°C -4_8 1cm 84% 8mph 10mph 1026mB
9:00 1934m -2°C -2_8 0cm 50% 8mph 8mph 1025mB
12:00 2161m 3°C 3_8 0cm 44% 8mph 8mph 1024mB
15:00 2281m 4°C 4_8 0cm 3% 8mph 9mph 1023mB
18:00 2186m 4°C 4_7 0cm 14% 7mph 8mph 1025mB
21:00 1687m -2°C -2_4 0cm 48% 4mph 5mph 1028mB
0:00 1669m -2°C -2_2 0cm 57% 2mph 3mph 1028mB
3:00 1659m -2°C -2_2 0cm 70% 2mph 3mph 1027mB
6:00 2628m -2°C -2_1 0cm 76% 1mph 1mph 1025mB
9:00 2627m 3°C 3_2 0cm 88% 2mph 2mph 1023mB
12:00 2778m 9°C 9_2 0cm 83% 2mph 2mph 1022mB
15:00 2881m 9°C 9_3 0cm 84% 3mph 3mph 1020mB
18:00 2848m 9°C 9_3 0cm 83% 3mph 3mph 1021mB
21:00 2207m 0°C 0_1 0cm 77% 1mph 1mph 1022mB
0:00 2209m 0°C 0_4 0cm 70% 4mph 5mph 1021mB
3:00 2168m 0°C 0_5 0cm 69% 5mph 7mph 1019mB
6:00 2767m 0°C 0_6 0cm 73% 6mph 8mph 1017mB
9:00 2716m 4°C 4_8 0cm 80% 8mph 9mph 1014mB
12:00 2928m 11°C 11_9 0cm 83% 9mph 11mph 1010mB
15:00 2902m 8°C 8_8 0cm 100% 8mph 9mph 1008mB
18:00 2782m 9°C 9_5 0cm 99% 5mph 6mph 1008mB
21:00 2677m 2°C 2_6 0cm 100% 6mph 7mph 1008mB
0:00 2546m 2°C 2_6 2cm 99% 6mph 8mph 1007mB
3:00 2390m 1°C 1_0 2cm 99% 0mph 2mph 1006mB
6:00 2139m 0°C 0_9 4cm 100% 9mph 10mph 1006mB
9:00 1687m -3°C -3_9 5cm 100% 9mph 11mph 1007mB
12:00 1681m 0°C 0_7 4cm 100% 7mph 8mph 1007mB
15:00 2006m -1°C -1_9 1cm 88% 9mph 11mph 1007mB
18:00 1751m -1°C -1_9 1cm 79% 9mph 11mph 1009mB
21:00 1233m -6°C -6_6 0cm 72% 6mph 7mph 1013mB
0:00 872m -9°C -9_5 0cm 76% 5mph 5mph 1014mB
3:00 580m -10°C -10_4 0cm 61% 4mph 5mph 1015mB
6:00 1327m -11°C -11_4 0cm 40% 4mph 5mph 1014mB
9:00 1797m -5°C -5_5 0cm 40% 5mph 4mph 1013mB
12:00 1985m -1°C -1_4 1cm 55% 4mph 4mph 1011mB
15:00 2041m 0°C 0_6 3cm 96% 6mph 6mph 1010mB
18:00 1848m 0°C 0_5 4cm 97% 5mph 7mph 1012mB
21:00 1474m -5°C -5_4 1cm 72% 4mph 4mph 1014mB
0:00 1070m -7°C -7_2 0cm 57% 2mph 3mph 1014mB
Afternoon 0.203125mm 1.0625 2050m 1°C 1_1 8cm 77% 1mph 2mph 1009mB
Morning 0.59375mm 0.75 1380m -4°C -4_5 6cm 75% 5mph 6mph 1014mB
Afternoon 0.015625mm 0.125 2425m 4°C 4_11 0cm 71% 11mph 13mph 1009mB
Morning 0.0260417mm 0.25 2014m 0°C 0_13 0cm 76% 13mph 17mph 1010mB
Afternoon 0.00520833mm 0 2786m 9°C 9_16 0cm 71% 16mph 18mph 1004mB
Morning 0.0416667mm 0 3275m 2°C 2_15 0cm 99% 15mph 22mph 1004mB
Afternoon 0.0260417mm 0.125 3051m 11°C 11_17 0cm 70% 17mph 20mph 1000mB
Morning 0.520833mm 5.125 2656m 4°C 4_14 0cm 84% 14mph 21mph 998mB
Afternoon 1.22917mm 2.625 2297m 4°C 4_8 21cm 100% 8mph 13mph 1001mB
Morning 0.505208mm 1.875 1736m -2°C -2_8 15cm 100% 8mph 12mph 1009mB
Afternoon 1.05729mm 0.125 1608m -2°C -2_11 8cm 100% 11mph 13mph 1013mB
Morning 0.817708mm 0.0625 1125m -6°C -6_7 7cm 100% 7mph 12mph 1021mB

16 day outlook at a glance

Forecast issued: 22/04/2019 08:03:51

Chat

Your comments and questions. In a resort? Let us know what it's like!


Characters left 250

For terms and conditions see Readers Comments on the Cookie and privacy policy page.